This is the latest recevied weather packets stored in our database for station/object N7SHZ. If no packets are shown the sender has not sent any weather packets the latest 1 day(s).
| Time | Temp. | Humidity | Pressure | Rain* | Wind** | Luminosity | Snow |
|---|---|---|---|---|---|---|---|
| 1778042331 | -2.22° C | 99% | 1028.5 hPa | - | - | 0 W/m² | - |
| 1778042028 | -2.22° C | 99% | 1028.7 hPa | - | - | 0 W/m² | - |
| 1778041727 | -1.67° C | 99% | 1028.7 hPa | - | - | 0 W/m² | - |
| 1778041124 | -1.11° C | 99% | 1028.3 hPa | - | - | 0 W/m² | - |
| 1778040820 | -1.11° C | 99% | 1028.6 hPa | - | - | 0 W/m² | - |
| 1778040215 | -0.56° C | 99% | 1028.3 hPa | - | - | 0 W/m² | - |
| 1778039911 | -0.56° C | 99% | 1028.3 hPa | - | - | 0 W/m² | - |
| 1778039609 | -0.56° C | 99% | 1028.3 hPa | - | - | 0 W/m² | - |
| 1778039306 | -0.56° C | 99% | 1028.1 hPa | - | - | 0 W/m² | - |
| 1778039003 | -0.56° C | 99% | 1028.1 hPa | - | - | 0 W/m² | - |
| 1778038700 | -0.56° C | 99% | 1028.1 hPa | - | - | 0 W/m² | - |
| 1778038397 | -0.56° C | 99% | 1028.1 hPa | - | - | 0 W/m² | - |
| 1778038093 | -0.56° C | 99% | 1028.1 hPa | - | - | 0 W/m² | - |
| 1778037487 | -0.56° C | 99% | 1027.9 hPa | - | - | 0 W/m² | - |
| 1778036277 | -0.56° C | 99% | 1027.4 hPa | - | - | 0 W/m² | - |
| 1778035973 | 0° C | 99% | 1027.4 hPa | - | - | 0 W/m² | - |
| 1778035670 | 0.56° C | 98% | 1027.5 hPa | - | - | 0 W/m² | - |
| 1778035367 | 1.67° C | 93% | 1027.3 hPa | - | - | 0 W/m² | - |
| 1778035063 | 1.67° C | 92% | 1027.1 hPa | - | - | 1 W/m² | - |
| 1778034760 | 1.67° C | 94% | 1027.1 hPa | - | - | 2 W/m² | - |
| 1778034457 | 1.67° C | 95% | 1027.1 hPa | - | - | 4 W/m² | - |
| 1778034155 | 1.67° C | 96% | 1026.9 hPa | - | - | 6 W/m² | - |
| 1778033852 | 1.67° C | 96% | 1027 hPa | - | - | 9 W/m² | - |
| 1778033549 | 1.67° C | 95% | 1027 hPa | - | - | 15 W/m² | - |
| 1778033246 | 1.67° C | 95% | 1027 hPa | - | - | 17 W/m² | - |
* Rain since midnight (hover to see other rain measurements)
** Current wind speed in m/s (hover to see current wind gust speed)